User: anonymous   Login
Location: Bats
(43.6587°N, 0.4584°W)
Time: 05:45:06
(UTC+00:00)
Language:

Cosmos 1452 Rocket - Orbit

View from above orbital plane
View from above orbital plane
View from above satellite
View from above satellite

Ground track
Ground track

The orbit is defined by the following mean orbital elements,

1 13992U          26065.05718365 +.00000000 +00000-0 +10031-3 0 00009
2 13992  74.0508 283.7645 0005467 203.7847 156.3055 14.37551061    06
Epoch (UTC): 06 March 2026 01:22:20
Eccentricity: 0.0005467
inclination: 74.0508°
perigee height: 763 km
apogee height: 771 km
right ascension of ascending node: 283.7645°
argument of perigee: 203.7847°
revolutions per day: 14.37551061
mean anomaly at epoch: 156.3055°

The dashed part of the orbit path shows where the satellite is in the earth's shadow,  

DLR